Weather in Guapi

Colombia     2°20′59″N   77°41′09″W
temp.,
°C
wind,
m/s
gust,
m/s
humid.,
%
clouds,
%
prec.,
mm/h
press.,
hPa
HPBL,
m
25 october, mon
mon2501:00+22e119839 7.5 101315
04:00+22sse1198100 4.6 101252
07:00+22s1299100 12.1 1014120
10:00+23nnw1197100 1.2 1016164
13:00+24nw1293100 4.1 1013306
16:00+25nw119389 6.1 1011305
19:00+23n1197100 12.3 101317
22:00+23ese0099100 4.5 101534
26 october, tue
tue2601:00+22s1399100 7.6 1014111
04:00+22s1298100 2.8 101292
07:00+22e1196100 2.9 101320
10:00+23n1395100 0.0 1014155
13:00+27wsw1179100 0.3 1011607
16:00+25wnw128688 0.9 1010282
19:00+23se119589 1.7 101232
22:00+22s1196100 0.1 101417
27 october, wed
wed2701:00+22ese1197100 0.3 101219
04:00+22n009798 0.0 101115
07:00+22s119688 0.0 101347
10:00+27n007775 0.1 1014642
13:00+29n226646 0.5 10111144
16:00+25nw239099 3.2 1010455
19:00+23nne0098100 8.8 101317
22:00+22s119890 2.8 101530
28 october, thu
thu2801:00+22ssw019898 3.1 101335
04:00+22s119975 0.6 101284
07:00+22w019852 0.8 1014112
10:00+27wnw118173 0.5 1014701
13:00+28nnw227664 2.1 1011876
16:00+25nnw249297 6.1 1010446
19:00+23nnw0198100 12.8 101372
22:00+22ssw1399100 4.1 1014199
29 october, fri
fri2901:00+22s1299100 8.5 1013113
04:00+22sw129975 2.9 101164
07:00+22s019899 2.9 101399
10:00+27wsw117992 0.1 1014682
13:00+30nw226372 0.3 10101282
16:00+25wnw129162 3.6 1009378
19:00+23w1298100 8.1 1012122
22:00+22se1299100 8.4 101399